Regional Weather Roundup
Issued by NWS

Home | Current Version | Previous Version | Text Only | Print | Product List | Glossary Off
Versions: 1 2 3 4 5 6 7 8 9 10 11 12 13 14 15 16 17 18 19 20 21 22 23 24 25 26 27

000
ASUS45 KCYS 181510
RWRWY

WYOMING REGIONAL WEATHER ROUNDUP
NATIONAL WEATHER SERVICE CHEYENNE WY
900 AM MDT MON SEP 18 2017

NOTE:  "FAIR" INDICATES FEW OR NO CLOUDS BELOW 12,000 FEET
WITH NO SIGNIFICANT WEATHER AND/OR OBSTRUCTIONS TO VISIBILITY.

WYZ001-181600-
YELLOWSTONE NATIONAL PARK

CITY           SKY/WX    TMP DP  RH WIND       PRES   REMARKS
LK YELLOWSTONE   N/A     34  33  96 CALM      30.05S
W YELLOWSTONE  NOT AVBL

$$
WYZ002>013-054>058-071-098>099-181600-
NORTHERN WYOMING

CITY           SKY/WX    TMP DP  RH WIND       PRES   REMARKS
JACKSON        FAIR      41  31  67 CALM      30.02F
CODY           FAIR      53  34  48 CALM      29.91S
GREYBULL       FAIR      47  42  83 CALM      29.90S
WORLAND        FAIR      46  42  86 CALM      29.90R
SHERIDAN       FAIR      51  41  68 CALM      29.86F
BUFFALO        FAIR      59  29  31 SE3       29.91S
GILLETTE       FAIR      57  39  51 CALM      29.90S
HULETT         FAIR      55  37  50 S3        29.92F
NEWCASTLE      FAIR      54  43  66 S8        29.95S

$$
WYZ014>020-022>026-101>103-181600-
CENTRAL WYOMING

CITY           SKY/WX    TMP DP  RH WIND       PRES   REMARKS
BIG PINEY      FAIR      36  31  82 S3        30.10S
PINEDALE       FAIR      34  32  93 NW3       30.10S
DUBOIS         FAIR      45  28  53 NW10      30.00S
LANDER           N/A    N/A N/A N/A MISG      29.96S
RIVERTON       FAIR      49  37  63 CALM      29.97S
CASPER         FAIR      58  34  40 SW17      29.99S
DOUGLAS        FAIR      53  31  42 CALM      29.99F

$$
WYZ021-027>030-104>119-181600-
SOUTHERN WYOMING

CITY           SKY/WX    TMP DP  RH WIND       PRES   REMARKS
EVANSTON       FAIR      51  34  52 SW7       30.09R
KEMMERER         N/A     39  32  75 N5        30.09S
FORT BRIDGER   FAIR      53  36  51 CALM      30.11S
ROCK SPRINGS   FAIR      53  35  50 VRB3      30.08F
DIXON          FAIR      49  39  68 E3        30.16R
RAWLINS        FAIR      57  35  43 VRB3      30.10S
SARATOGA       FAIR      54  36  50 E14       30.13S
LARAMIE        FAIR      52  35  52 S12       30.15R
CHEYENNE       FAIR      61  38  42 SW9       30.09S
TORRINGTON     FOG       49  49 100 CALM      29.98S VSB 1/4
PINE BLUFFS    FAIR      52  52 100 SW5       30.07S

$$




USA.gov is the U.S. government's official web portal to all federal, state and local government web resources and services.